AA3JL Weather Reports


Display with metric or nautical units.
time (UTC)temp
F
wind
direction
speed
MPH
gust
MPH
rain 1hr
in
rain 24hr
in
rain mn
in
humidity
%
barometer
mb
20260507174538 62 240 8.0 13.0 0.00 0.00 0.00 44 1010.8
20260507173045 61 315 8.0 15.0 0.00 0.00 0.00 42 1011.0
20260507171548 61 253 8.0 13.0 0.00 0.00 0.00 48 1011.2
20260507170037 61 250 6.0 14.0 0.00 0.00 0.00 49 1011.3
20260507164544 61 263 7.0 13.0 0.00 0.00 0.00 48 1011.4
20260507163048 59 231 4.0 11.0 0.00 0.00 0.00 49 1011.7
20260507161543 59 299 3.0 8.0 0.00 0.00 0.00 46 1011.8
20260507160047 59 317 5.0 12.0 0.00 0.00 0.00 46 1012.0
20260507154538 60 205 2.0 10.0 0.00 0.00 0.00 46 1012.1
20260507153043 58 249 6.0 14.0 0.00 0.00 0.00 52 1012.3
20260507151535 56 260 5.0 10.0 0.00 0.00 0.00 50 1012.4
20260507150043 57 255 2.0 10.0 0.00 0.00 0.00 53 1012.6
20260507144539 57 219 3.0 12.0 0.00 0.01 0.00 50 1012.9
20260507143042 57 221 4.0 9.0 0.00 0.01 0.00 54 1013.0
20260507141542 57 253 2.0 11.0 0.00 0.01 0.00 54 1013.2
20260507140038 56 248 4.0 10.0 0.00 0.01 0.00 57 1013.4
20260507134542 55 236 1.0 10.0 0.00 0.01 0.00 56 1013.6
20260507133040 54 224 3.0 8.0 0.00 0.01 0.00 62 1013.6
20260507131539 54 175 3.0 8.0 0.00 0.01 0.00 61 1013.6
20260507130050 53 241 3.0 7.0 0.00 0.01 0.00 66 1013.6
20260507124549 52 227 2.0 5.0 0.00 0.04 0.00 70 1013.7
20260507123037 50 0 1.0 4.0 0.00 0.04 0.00 75 1013.8
20260507121540 48 213 2.0 5.0 0.00 0.04 0.00 82 1013.8
20260507120040 45 205 1.0 3.0 0.00 0.04 0.00 86 1013.6
20260507114556 43 281 1.0 2.0 0.00 0.06 0.00 89 1013.6
20260507113038 41 0 1.0 2.0 0.00 0.06 0.00 94 1013.5
20260507111534 38 0 0.0 2.0 0.00 0.06 0.00 93 1013.4
20260507110046 38 0 0.0 0.0 0.00 0.06 0.00 92 1013.2
20260507104549 38 0 0.0 1.0 0.00 0.15 0.00 92 1013.0
20260507103040 38 0 0.0 1.0 0.00 0.15 0.00 91 1013.1
20260507101538 38 0 0.0 0.0 0.00 0.15 0.00 90 1013.0
20260507100042 39 0 0.0 0.0 0.00 0.15 0.00 90 1013.0
20260507094534 40 0 0.0 1.0 0.00 0.21 0.00 90 1012.8
20260507093044 40 0 0.0 1.0 0.00 0.21 0.00 88 1012.9
20260507091557 41 0 0.0 0.0 0.00 0.21 0.00 87 1013.0
20260507090039 42 0 0.0 0.0 0.00 0.21 0.00 86 1013.0
20260507084540 43 0 0.0 0.0 0.00 0.23 0.00 85 1013.0
20260507083036 44 0 0.0 0.0 0.00 0.23 0.00 84 1013.0
20260507081536 45 0 0.0 0.0 0.00 0.23 0.00 82 1012.7
20260507080049 46 0 0.0 1.0 0.00 0.23 0.00 80 1012.7
20260507074546 47 0 0.0 2.0 0.00 0.25 0.00 78 1012.7
20260507073039 47 0 0.0 1.0 0.00 0.25 0.00 77 1012.7
20260507071537 47 360 0.0 3.0 0.00 0.25 0.00 75 1012.7
20260507070054 47 360 0.0 0.0 0.00 0.25 0.00 77 1012.7
20260507064540 48 0 0.0 3.0 0.00 0.29 0.00 74 1012.7
20260507063052 48 360 0.0 4.0 0.00 0.29 0.00 76 1012.7
20260507061546 48 0 0.0 2.0 0.00 0.29 0.00 79 1013.0
20260507060042 48 0 0.0 2.0 0.00 0.29 0.00 78 1013.1
20260507054541 48 0 0.0 0.0 0.00 0.32 0.00 76 1013.4
20260507053040 49 0 0.0 0.0 0.00 0.32 0.00 75 1013.5
20260507051540 49 0 0.0 1.0 0.00 0.32 0.00 71 1013.3
20260507050039 49 0 0.0 3.0 0.00 0.32 0.00 73 1013.5
20260507044542 49 352 0.0 2.0 0.00 0.33 0.00 72 1013.5
20260507043038 49 0 1.0 3.0 0.00 0.33 0.00 73 1013.4
20260507041544 49 0 0.0 1.0 0.00 0.33 0.00 73 1013.5
20260507040041 50 327 0.0 3.0 0.00 0.33 0.00 73 1013.5
20260507034540 50 327 0.0 2.0 0.00 0.33 0.33 76 1013.5
20260507033039 50 0 0.0 1.0 0.00 0.33 0.33 72 1013.5
20260507031537 50 0 0.0 1.0 0.00 0.33 0.33 73 1013.1
20260507030036 51 327 0.0 1.0 0.00 0.33 0.33 71 1012.9
20260507024537 51 0 0.0 2.0 0.00 0.33 0.33 70 1012.9
20260507023035 51 327 1.0 4.0 0.00 0.33 0.33 69 1013.1
20260507021539 51 333 1.0 5.0 0.00 0.33 0.33 70 1012.8
20260507020043 52 348 4.0 9.0 0.00 0.33 0.33 69 1012.4
20260507014543 52 9 5.0 11.0 0.00 0.33 0.33 70 1012.1
20260507013047 52 352 5.0 11.0 0.00 0.33 0.33 77 1011.9
20260507011536 52 348 1.0 7.0 0.00 0.33 0.33 80 1012.0
20260507010046 53 360 1.0 3.0 0.00 0.33 0.33 79 1012.2
20260507004539 53 352 1.0 4.0 0.00 0.33 0.33 80 1012.4
20260507003039 53 300 1.0 5.0 0.00 0.33 0.33 80 1012.7
20260507001547 53 269 1.0 5.0 0.00 0.33 0.33 81 1012.8
20260507000041 54 269 0.0 2.0 0.00 0.33 0.33 80 1012.0
20260506234542 54 0 0.0 2.0 0.00 0.33 0.33 79 1012.1
20260506233054 54 310 1.0 5.0 0.00 0.33 0.33 78 1011.9
20260506231541 54 340 1.0 4.0 0.00 0.33 0.33 78 1011.7
20260506230037 54 339 1.0 6.0 0.00 0.33 0.33 79 1011.5
20260506224536 54 313 2.0 6.0 0.00 0.33 0.33 78 1011.4
20260506223040 54 317 1.0 6.0 0.00 0.33 0.33 79 1011.3
20260506221540 54 303 2.0 5.0 0.00 0.33 0.33 79 1011.4
20260506220041 54 0 1.0 6.0 0.00 0.33 0.33 79 1011.4
20260506214535 54 288 2.0 8.0 0.00 0.33 0.33 79 1011.3
20260506213037 54 5 2.0 10.0 0.00 0.33 0.33 80 1011.0
20260506211536 54 323 4.0 12.0 0.00 0.33 0.33 80 1010.8
20260506210041 54 256 5.0 12.0 0.00 0.33 0.33 80 1010.6
20260506204539 54 312 5.0 11.0 0.00 0.34 0.33 80 1010.3
20260506203035 55 311 3.0 13.0 0.00 0.34 0.33 81 1010.2
20260506201537 55 329 6.0 12.0 0.00 0.34 0.33 80 1010.1
20260506200041 56 315 6.0 11.0 0.00 0.34 0.33 81 1009.9
20260506194546 55 290 3.0 9.0 0.00 0.34 0.33 85 1010.2
20260506193038 55 246 3.0 9.0 0.00 0.34 0.33 87 1009.9
20260506191539 54 256 3.0 10.0 0.00 0.34 0.33 87 1010.0
20260506190034 54 230 2.0 8.0 0.00 0.34 0.33 88 1010.2
20260506184544 54 250 3.0 7.0 0.00 0.34 0.33 88 1010.0
20260506183041 54 0 2.0 7.0 0.00 0.34 0.33 88 1009.8
20260506181539 53 262 3.0 8.0 0.00 0.34 0.33 90 1010.1
20260506180043 53 252 6.0 12.0 0.00 0.34 0.33 90 1009.9